This is the latest recevied weather packets stored in our database for station/object EA7URS-13. If no packets are shown the sender has not sent any weather packets the latest 10 day(s).
| Time | Temp. | Humidity | Pressure | Rain* | Wind** | Luminosity | Snow |
|---|---|---|---|---|---|---|---|
| 1788604594 | 29.44° C | 61% | 1012.5 hPa | 0 mm | - | 205 W/m² | - |
| 1788604293 | 29.44° C | 61% | 1012.5 hPa | 0 mm | - | 205 W/m² | - |
| 1788603992 | 29.44° C | 63% | 1012.4 hPa | 0 mm | - | 174 W/m² | - |
| 1788603691 | 29.44° C | 63% | 1012.4 hPa | 0 mm | - | 174 W/m² | - |
| 1788603390 | 28.89° C | 62% | 1012.5 hPa | 0 mm | - | 133 W/m² | - |
| 1788603088 | 28.89° C | 62% | 1012.5 hPa | 0 mm | - | 133 W/m² | - |
| 1788602787 | 28.89° C | 63% | 1012.6 hPa | 0 mm | - | 125 W/m² | - |
| 1788602486 | 28.89° C | 63% | 1012.6 hPa | 0 mm | - | 125 W/m² | - |
| 1788602185 | 28.33° C | 63% | 1012.2 hPa | 0 mm | - | 153 W/m² | - |
| 1788601884 | 28.33° C | 63% | 1012.2 hPa | 0 mm | - | 153 W/m² | - |
| 1788601583 | 28.33° C | 64% | 1012.2 hPa | 0 mm | - | 142 W/m² | - |
| 1788601282 | 28.33° C | 64% | 1012.2 hPa | 0 mm | - | 142 W/m² | - |
| 1788600981 | 28.33° C | 63% | 1012.3 hPa | 0 mm | - | 122 W/m² | - |
| 1788600679 | 28.33° C | 63% | 1012.3 hPa | 0 mm | - | 122 W/m² | - |
| 1788600378 | 28.33° C | 61% | 1012.1 hPa | 0 mm | - | 111 W/m² | - |
| 1788600077 | 28.33° C | 61% | 1012.1 hPa | 0 mm | - | 111 W/m² | - |
| 1788599776 | 28.33° C | 62% | 1012 hPa | 0 mm | - | 141 W/m² | - |
| 1788599475 | 28.33° C | 62% | 1012 hPa | 0 mm | - | 141 W/m² | - |
| 1788599173 | 27.78° C | 64% | 1012 hPa | 0 mm | - | 185 W/m² | - |
| 1788598872 | 27.78° C | 64% | 1012 hPa | 0 mm | - | 185 W/m² | - |
| 1788598571 | 0° C | 1% | 1011.7 hPa | 0 mm | - | 0 W/m² | - |
| 1788598269 | 0° C | 1% | 1011.7 hPa | 0 mm | - | 0 W/m² | - |
| 1788597968 | 0° C | 1% | 1011.3 hPa | 0 mm | - | 0 W/m² | - |
| 1788597667 | 0° C | 1% | 1011.3 hPa | 0 mm | - | 0 W/m² | - |
| 1788597366 | 0° C | 1% | 1011.4 hPa | 0 mm | - | 0 W/m² | - |
* Rain latest hour (hover to see other rain measurements)
** Current wind speed in m/s (hover to see current wind gust speed)